Time,TemperatureF,DewpointF,PressureIn,WindDirection,WindDirectionDegrees,WindSpeedMPH,WindSpeedGustMPH,Humidity,HourlyPrecipIn,Conditions,Clouds,dailyrainin,SoftwareType,DateUTC
2013-09-03 00:00:00,58.0,52.0,29.98,South,190,16.0,24.0,80,-99.99,,,-99.99,,2013-09-03 08:00:00,
2013-09-03 00:52:00,58.0,52.0,29.98,South,190,16.0,24.0,80,-99.99,,,-99.99,,2013-09-03 08:52:00,
2013-09-03 01:00:00,58.0,52.0,29.98,South,180,17.0,23.0,80,-99.99,,,-99.99,,2013-09-03 09:00:00,
2013-09-03 01:53:00,58.0,52.0,29.98,South,180,17.0,23.0,80,-99.99,,,-99.99,,2013-09-03 09:53:00,
2013-09-03 02:00:00,56.0,53.0,29.98,South,180,17.0,25.0,90,-99.99,,,-99.99,,2013-09-03 10:00:00,
2013-09-03 02:53:00,56.0,53.0,29.98,South,180,17.0,25.0,90,-99.99,,,-99.99,,2013-09-03 10:53:00,
2013-09-03 03:00:00,57.0,52.0,29.96,South,190,16.0,28.0,83,-99.99,,,-99.99,,2013-09-03 11:00:00,
2013-09-03 03:52:00,57.0,52.0,29.96,South,190,16.0,28.0,83,-99.99,,,-99.99,,2013-09-03 11:52:00,
2013-09-03 04:00:00,57.0,52.0,29.96,SSE,160,18.0,24.0,83,-99.99,,,-99.99,,2013-09-03 12:00:00,
2013-09-03 04:51:00,57.0,52.0,29.96,SSE,160,18.0,24.0,83,-99.99,,,-99.99,,2013-09-03 12:51:00,
2013-09-03 05:00:00,56.0,52.0,29.94,South,170,16.0,24.0,86,-99.99,,,-99.99,,2013-09-03 13:00:00,
2013-09-03 05:52:00,56.0,52.0,29.94,South,170,16.0,24.0,86,-99.99,,,-99.99,,2013-09-03 13:52:00,
2013-09-03 06:00:00,56.0,52.0,29.94,South,180,22.0,30.0,86,-99.99,,,-99.99,,2013-09-03 14:00:00,
2013-09-03 06:51:00,56.0,52.0,29.94,South,180,22.0,30.0,86,-99.99,,,-99.99,,2013-09-03 14:51:00,
2013-09-03 07:00:00,56.0,52.0,29.92,South,190,26.0,33.0,86,-99.99,,,-99.99,,2013-09-03 15:00:00,
2013-09-03 07:53:00,56.0,52.0,29.92,South,190,26.0,33.0,86,-99.99,,,-99.99,,2013-09-03 15:53:00,
2013-09-03 08:00:00,56.0,52.0,29.94,South,190,23.0,32.0,86,-99.99,,,-99.99,,2013-09-03 16:00:00,
2013-09-03 08:54:00,56.0,52.0,29.94,South,190,23.0,32.0,86,-99.99,,,-99.99,,2013-09-03 16:54:00,
2013-09-03 09:00:00,56.0,52.0,29.92,South,190,24.0,37.0,86,-99.99,,,-99.99,,2013-09-03 17:00:00,
2013-09-03 09:52:00,56.0,52.0,29.92,South,190,24.0,37.0,86,-99.99,,,-99.99,,2013-09-03 17:52:00,
2013-09-03 10:00:00,56.0,52.0,29.94,South,170,18.0,38.0,86,-99.99,,,-99.99,,2013-09-03 18:00:00,
2013-09-03 10:52:00,56.0,52.0,29.94,South,170,18.0,38.0,86,-99.99,,,-99.99,,2013-09-03 18:52:00,
2013-09-03 11:00:00,57.0,52.0,29.92,SSW,200,31.0,37.0,83,-99.99,,,-99.99,,2013-09-03 19:00:00,
2013-09-03 11:52:00,57.0,52.0,29.92,SSW,200,31.0,37.0,83,-99.99,,,-99.99,,2013-09-03 19:52:00,
2013-09-03 12:00:00,58.0,52.0,29.91,SSW,200,31.0,40.0,80,-99.99,,,-99.99,,2013-09-03 20:00:00,
2013-09-03 12:52:00,58.0,52.0,29.91,SSW,200,31.0,40.0,80,-99.99,,,-99.99,,2013-09-03 20:52:00,
2013-09-03 13:00:00,58.0,53.0,29.91,South,170,20.0,37.0,83,-99.99,,,-99.99,,2013-09-03 21:00:00,
2013-09-03 13:54:00,58.0,53.0,29.91,South,170,20.0,37.0,83,-99.99,,,-99.99,,2013-09-03 21:54:00,
2013-09-03 14:00:00,58.0,53.0,29.90,South,170,18.0,30.0,83,-99.99,,,-99.99,,2013-09-03 22:00:00,
2013-09-03 14:52:00,58.0,53.0,29.90,South,170,18.0,30.0,83,-99.99,,,-99.99,,2013-09-03 22:52:00,
2013-09-03 15:00:00,61.0,52.0,29.88,South,180,30.0,37.0,72,-99.99,,,-99.99,,2013-09-03 23:00:00,
2013-09-03 15:53:00,61.0,52.0,29.88,South,180,30.0,37.0,72,-99.99,,,-99.99,,2013-09-03 23:53:00,
2013-09-03 16:00:00,61.0,53.0,29.87,South,190,30.0,37.0,75,-99.99,,,-99.99,,2013-09-04 00:00:00,
2013-09-03 16:52:00,61.0,53.0,29.87,South,190,30.0,37.0,75,-99.99,,,-99.99,,2013-09-04 00:52:00,
2013-09-03 17:00:00,61.0,53.0,29.87,South,180,30.0,39.0,75,-99.99,,,-99.99,,2013-09-04 01:00:00,
2013-09-03 17:52:00,61.0,53.0,29.87,South,180,30.0,39.0,75,-99.99,,,-99.99,,2013-09-04 01:52:00,
2013-09-03 18:00:00,61.0,53.0,29.88,South,170,18.0,37.0,75,-99.99,,,-99.99,,2013-09-04 02:00:00,
2013-09-03 18:52:00,61.0,53.0,29.88,South,170,18.0,37.0,75,-99.99,,,-99.99,,2013-09-04 02:52:00,
2013-09-03 19:00:00,61.0,53.0,29.86,South,180,25.0,34.0,75,-99.99,,,-99.99,,2013-09-04 03:00:00,
2013-09-03 19:54:00,61.0,53.0,29.86,South,180,25.0,34.0,75,-99.99,,,-99.99,,2013-09-04 03:54:00,
2013-09-03 20:00:00,60.0,53.0,29.86,South,190,25.0,33.0,77,-99.99,,,-99.99,,2013-09-04 04:00:00,
2013-09-03 20:54:00,60.0,53.0,29.86,South,190,25.0,33.0,77,-99.99,,,-99.99,,2013-09-04 04:54:00,
2013-09-03 21:00:00,60.0,53.0,29.88,South,170,20.0,30.0,77,-99.99,,,-99.99,,2013-09-04 05:00:00,
2013-09-03 21:52:00,60.0,53.0,29.88,South,170,20.0,30.0,77,-99.99,,,-99.99,,2013-09-04 05:52:00,
2013-09-03 22:00:00,59.0,53.0,29.88,South,170,16.0,25.0,80,-99.99,,,-99.99,,2013-09-04 06:00:00,
2013-09-03 22:52:00,59.0,53.0,29.88,South,170,16.0,25.0,80,-99.99,,,-99.99,,2013-09-04 06:52:00,
2013-09-03 23:00:00,57.0,53.0,29.89,South,180,16.0,21.0,86,-99.99,,,-99.99,,2013-09-04 07:00:00,
2013-09-03 23:52:00,57.0,53.0,29.89,South,180,16.0,21.0,86,-99.99,,,-99.99,,2013-09-04 07:52:00,